WetterOnline ( https://www.wetteronline.de )

Wetter aktuell Karlsruhe

Aktuelles Wetter: Rheinstetten (116m)

6-stündlich | Neueste Meldungen
Ortszeit Temperatur Wetter
Sa, 28.01. 19:00 2.0° C bedeckt
Sa, 28.01. 13:00 2.6° C Regen
Sa, 28.01. 7:00 2.0° C wolkig
Sa, 28.01. 1:00 2.1° C bedeckt
Fr, 27.01. 19:00 1.3° C bedeckt
Fr, 27.01. 13:00 1.3° C bedeckt
Fr, 27.01. 7:00 -0.5° C bewölkt
Fr, 27.01. 1:00 -0.7° C bewölkt
Ortszeit Temperatur Wetter
Sa, 28.01. 23:00 0.8° C bedeckt
Sa, 28.01. 22:50 0.8° C bedeckt
Sa, 28.01. 22:40 1.0° C bedeckt
Sa, 28.01. 22:30 1.0° C bedeckt
Sa, 28.01. 22:20 1.0° C bedeckt
Sa, 28.01. 22:10 1.1° C bedeckt
Sa, 28.01. 22:00 1.1° C bedeckt
Sa, 28.01. 21:30 1.3° C bedeckt
Sa, 28.01. 21:00 1.5° C bedeckt
Sa, 28.01. 20:30 1.6° C bedeckt
Sa, 28.01. 20:00 1.7° C bedeckt
Ortszeit Relative Feuchte Sichtweite
Sa, 28.01. 19:00 71% 60 km
Sa, 28.01. 13:00 83% 35 km
Sa, 28.01. 7:00 88% 26 km
Sa, 28.01. 1:00 74% 55 km
Fr, 27.01. 19:00 76% 40 km
Fr, 27.01. 13:00 73% 45 km
Fr, 27.01. 7:00 90% 8 km
Fr, 27.01. 1:00 83% 22 km
Ortszeit Relative Feuchte Sichtweite
Sa, 28.01. 23:00 69% 45 km
Sa, 28.01. 22:50 69% -
Sa, 28.01. 22:40 69% -
Sa, 28.01. 22:30 70% 45 km
Sa, 28.01. 22:20 70% -
Sa, 28.01. 22:10 70% -
Sa, 28.01. 22:00 70% 50 km
Sa, 28.01. 21:30 71% 50 km
Sa, 28.01. 21:00 70% 55 km
Sa, 28.01. 20:30 73% 60 km
Sa, 28.01. 20:00 73% 45 km
Ortszeit Niederschlagsmenge Niederschlagsart
Sa, 28.01. 19:00 0.1 l/m2 in 12 Std. Regen
Sa, 28.01. 13:00 0.1 l/m2 in 6 Std. Regen
Sa, 28.01. 7:00 0.1 l/m2 in 12 Std. Regen
Sa, 28.01. 1:00 0.0 l/m2 in 6 Std. -
Fr, 27.01. 19:00 0.1 l/m2 in 12 Std. -
Fr, 27.01. 13:00 0.1 l/m2 in 6 Std. Sprühregen
Fr, 27.01. 7:00 0.1 l/m2 in 12 Std. Sprühregen
Fr, 27.01. 1:00 0.0 l/m2 in 6 Std. -
Ortszeit Niederschlagsmenge Niederschlagsart
Sa, 28.01. 23:00 0.0 l/m2 in 1 Std. -
Sa, 28.01. 22:50 keine Meldung -
Sa, 28.01. 22:40 keine Meldung -
Sa, 28.01. 22:30 0.0 l/m2 in 30 Min -
Sa, 28.01. 22:20 keine Meldung -
Sa, 28.01. 22:10 keine Meldung -
Sa, 28.01. 22:00 0.0 l/m2 in 1 Std. -
Sa, 28.01. 21:30 0.0 l/m2 in 30 Min -
Sa, 28.01. 21:00 0.0 l/m2 in 1 Std. -
Sa, 28.01. 20:30 0.0 l/m2 in 30 Min -
Sa, 28.01. 20:00 0.0 l/m2 in 1 Std. -
Ortszeit Stärke Spitze Richtung
km/h Bft. km/h Grad Sektor
Sa, 28.01. 19:00 17 3 31 20° N
Sa, 28.01. 13:00 18 3 25 40° NO
Sa, 28.01. 7:00 13 3 20 50° NO
Sa, 28.01. 1:00 9 2 20 50° NO
Fr, 27.01. 19:00 4 1 22 80° O
Fr, 27.01. 13:00 15 3 30 70° O
Fr, 27.01. 7:00 11 2 14 40° NO
Fr, 27.01. 1:00 4 1 11 360° N
Ortszeit Stärke Spitze Richtung
km/h Bft. km/h Grad Sektor
Sa, 28.01. 23:00 11 2 22 30° NO
Sa, 28.01. 22:50 11 2 - 30° NO
Sa, 28.01. 22:40 13 3 - 20° N
Sa, 28.01. 22:30 13 3 22 20° N
Sa, 28.01. 22:20 13 3 - 20° N
Sa, 28.01. 22:10 14 3 - 10° N
Sa, 28.01. 22:00 13 3 26 10° N
Sa, 28.01. 21:30 14 3 22 360° N
Sa, 28.01. 21:00 17 3 22 30° NO
Sa, 28.01. 20:30 13 3 22 20° N
Sa, 28.01. 20:00 14 3 22 20° N
Ortszeit Untergrenze Bedeckung Gattung
total tief tief mittel hoch
Sa, 28.01. 19:00 900 m 8/8 8/8 - - -
Sa, 28.01. 13:00 540 m 7/8 7/8 - - -
Sa, 28.01. 7:00 360 m 5/8 5/8 - - -
Sa, 28.01. 1:00 930 m 8/8 8/8 - - -
Fr, 27.01. 19:00 780 m 8/8 8/8 - - -
Fr, 27.01. 13:00 600 m 8/8 8/8 - - -
Fr, 27.01. 7:00 600 m 7/8 7/8 - - -
Fr, 27.01. 1:00 600 m 7/8 7/8 - - -
Ortszeit Bedeckungsgrad in Achtel und Wolkenuntergrenze
Sa, 28.01. 23:00 8(870m)
Sa, 28.01. 22:50 8(870m)
Sa, 28.01. 22:40 8
Sa, 28.01. 22:30 8(870m)
Sa, 28.01. 22:20 8(870m)
Sa, 28.01. 22:10 8
Sa, 28.01. 22:00 8(840m)
Sa, 28.01. 21:30 8(810m)
Sa, 28.01. 21:00 8(840m)
Sa, 28.01. 20:30 8(870m)
Sa, 28.01. 20:00 8(840m)
Ortszeit Luftdruck NN (hPa) Tendenz (hPa in 3 Std.)
Sa, 28.01. 19:00 1029 + 1,0
Sa, 28.01. 13:00 1028 + 0,5
Sa, 28.01. 7:00 1026 + 0,8
Sa, 28.01. 1:00 1025 + 0,2
Fr, 27.01. 19:00 1024 + 1,0
Fr, 27.01. 13:00 1023 - 0,1
Fr, 27.01. 7:00 1022 + 0,6
Fr, 27.01. 1:00 1022 - 1,0
Ortszeit Luftdruck NN (hPa) Tendenz (hPa in 3 Std.)
Sa, 28.01. 23:00 1031 + 1,1
Sa, 28.01. 22:50 1031 keine Meldung
Sa, 28.01. 22:40 1031 keine Meldung
Sa, 28.01. 22:30 1031 + 1,1
Sa, 28.01. 22:20 1031 keine Meldung
Sa, 28.01. 22:10 1031 keine Meldung
Sa, 28.01. 22:00 1031 + 1,2
Sa, 28.01. 21:30 1031 + 1,4
Sa, 28.01. 21:00 1030 + 1,1
Sa, 28.01. 20:30 1030 + 1,0
Sa, 28.01. 20:00 1030 + 0,9
Ortszeit Schneehöhe (cm)
Sa, 28.01. 19:00 0
Sa, 28.01. 13:00 0
Sa, 28.01. 7:00 0
Sa, 28.01. 1:00 0
Fr, 27.01. 19:00 0
Fr, 27.01. 13:00 0
Fr, 27.01. 7:00 0
Fr, 27.01. 1:00 0
Ortszeit Schneehöhe (cm)
Sa, 28.01. 23:00 0
Sa, 28.01. 22:50 0
Sa, 28.01. 22:40 0
Sa, 28.01. 22:30 0
Sa, 28.01. 22:20 0
Sa, 28.01. 22:10 0
Sa, 28.01. 22:00 0
Sa, 28.01. 21:30 0
Sa, 28.01. 21:00 0
Sa, 28.01. 20:30 0
Sa, 28.01. 20:00 0
Link zu dieser Seite / Seite empfehlen

Das Wetter in ...